www.pogodaiklimat.ru

Погода и климат >> Архив погоды >> Молдова >> Дубоссары


ПОГОДА в Дубоссарах

  • Прогноз погоды в Дубоссарах
  • Монитор погоды в Дубоссарах

АРХИВ ПОГОДЫ в Дубоссарах

Время (UTC), дата Ветер
(напр.,м/с)
 
Видим.   Явления Облачность Т
(С)
Тd
(С)
f
(%)
Тe
(С)
Тes
(С)
Комфортность P
(гПа)
Po
(гПа)
Тmin
(С)
Tmax
(С)
R
(мм)
R24
(мм)
S
(см)
18 11.09 штиль 0 10 км 9/0
[Ac trans Ci sp]
+22.4 +6.5 36 +23 +23 комфорт 1024.2 1019.3 +30.4
21 11.09 штиль 0 10 км 4/0
[Ci sp]
+16.7 +5.3 47 +17 +17 1025.0 1020.0
00 12.09 штиль 0 10 км 4/0
[Ci sp]
+13.4 +6.5 63 +13 +13 1025.9 1020.8
03 12.09 штиль 0 10 км 3/0
[Ac trans]
+12.5 +8.1 75 +12 +12 1026.0 1020.9
06 12.09 СЗ 1 10 км 6/0
[Ci sp]
+15.3 +5.8 53 +16 +19 1026.9 1021.8 +11.3
09 12.09 СЗ 2 10 км 8/0
[Ci sp]
+24.9 +11.1 42 +26 +35 жарко 1026.5 1021.6
12 12.09 В 1 10 км 4/0
[Ci sp]
+30.4 +2.5 17 +28 +37 жарко 1025.3 1020.5
15 12.09 В 1 10 км 5/0
[Ci sp]
+29.3 +3.4 19 +27 +28 жарко 1024.2 1019.4
18 12.09 СЗ 1 10 км 3/0
[Ci sp]
+21.0 +5.6 37 +23 +23 комфорт 1025.0 1020.0 +31.0
21 12.09 СЗ 1 10 км 1/0
[Ci fib]
+16.2 +8.6 61 +17 +17 1025.3 1020.2
00 13.09 С 1 10 км ясно +15.3 +7.0 58 +16 +16 1025.3 1020.2
03 13.09 С 1 10 км 1/0
[Ci sp]
+13.6 +6.1 60 +14 +14 1025.4 1020.3
06 13.09 С 1 10 км 8/0
[Ci sp]
+16.5 +6.8 53 +17 +20 1026.1 1021.1 +11.8
09 13.09 СЗ 1 10 км 3/0
[Ci sp]
+24.7 +6.7 32 +25 +36 комфорт 1025.9 1021.0
12 13.09 С 2 10 км ясно +30.6 +4.0 19 +29 +37 жарко 1023.8 1019.0
15 13.09 С 3 10 км 1/0
[Ci sp]
+29.5 +4.8 21 +28 +29 жарко 1022.5 1017.7
18 13.09 С 2 10 км 1/0
[Ac trans]
+22.5 +8.6 41 +24 +24 комфорт 1023.2 1018.3 +32.6
21 13.09 штиль 0 10 км 8/0
[Ci sp]
+18.4 +10.2 59 +19 +19 1023.4 1018.4
00 14.09 штиль 0 10 км 8/0
[Ac trans Ci sp]
+15.9 +10.4 70 +16 +16 1023.5 1018.4
03 14.09 С 2 10 км 9/0
[Ac trans Ci sp]
+18.4 +10.4 60 +19 +19 1023.2 1018.2
06 14.09 С 1 10 км 8/3 600 м
[Cb calv Ac trans Ci sp]
+19.7 +11.8 60 +22 +24 комфорт 1024.0 1019.0 +15.8
09 14.09 СЗ 3 10 км 9/8 600 м
[Sc Ac trans]
+23.4 +12.4 50 +26 +27 жарко 1023.9 1019.0
12 14.09 С 5 10 км 9/6 600 м
[Cb calv Ac trans Ci sp]
+24.8 +12.3 46 +27 +28 жарко 1023.4 1018.5
15 14.09 С 4 10 км 8/3 600 м
[Sc Ac trans]
+21.3 +11.2 53 +23 +23 комфорт 1023.7 1018.8
18 14.09 С 2 10 км ясно +17.7 +6.7 48 +18 +18 1025.2 1020.2 +25.9
21 14.09 СВ 2 10 км ясно +15.4 +4.5 48 +15 +15 1027.0 1021.9
00 15.09 штиль 0 10 км 3/0
[Ci fib]
+12.3 +5.5 63 +12 +12 1027.4 1022.3
03 15.09 штиль 0 10 км ясно +9.3 +5.6 78 +9 +9 1027.5 1022.4
06 15.09 штиль 0 10 км 8/0
[Ci fib]
+12.8 +6.5 65 +13 +16 1028.0 1022.9 +8.5
09 15.09 С 1 10 км ясно +20.9 +3.2 31 +22 +34 комфорт 1027.0 1022.0
12 15.09 СВ 1 10 км 3/0
[Ci sp]
+23.3 +2.3 25 +23 +32 комфорт 1024.3 1019.4
15 15.09 ЮЗ 1 10 км 3/0
[Ci sp]
+24.2 +3.0 25 +23 +24 комфорт 1022.3 1017.4
18 15.09 В 1 10 км 1/0
[Ci sp]
+16.2 +5.1 48 +17 +17 1021.4 1016.3 +25.0
21 15.09 ЮВ 1 10 км 3/0
[Ci fib]
+13.8 +4.8 55 +14 +14 1020.3 1015.2
00 16.09 штиль 0 10 км ясно +12.8 +5.6 62 +13 +13 1019.1 1014.1
03 16.09 штиль 0 10 км ясно +11.1 +6.4 73 +11 +11 1017.9 1012.8
06 16.09 В 1 10 км 4/0
[Ci sp]
+14.2 +7.0 62 +15 +18 1017.2 1012.2 +9.5
09 16.09 СЗ 3 10 км 1/1 600 м
[Cu hum]
+23.6 +5.5 31 +24 +31 комфорт 1016.2 1011.4
12 16.09 З 3 10 км ясно +26.7 +5.6 26 +26 +33 жарко 1013.9 1009.1
15 16.09 СЗ 3 10 км ясно +26.8 +9.2 33 +27 +28 жарко 1012.2 1007.4
18 16.09 штиль 0 10 км 1/0
[Ac trans]
+19.9 +8.0 46 +21 +21 комфорт 1012.4 1007.5 +28.0
21 16.09 штиль 0 10 км 1/0
[Ac trans]
+15.7 +7.0 56 +16 +16 1012.1 1007.1
00 17.09 штиль 0 10 км 9/0
[Ac trans Ci sp]
+13.8 +6.8 63 +14 +14 1011.7 1006.7
03 17.09 С 2 10 км 9/0
[Ac trans Ci sp]
+16.1 +9.2 64 +16 +16 1011.5 1006.5
06 17.09 СВ 3 10 км 10/4 600 м
[Cb calv Ac As]
+16.1 +10.4 69 +16 +16 1012.8 1007.9 +13.7
09 17.09 С 3 10 км {ливн. осадки} 9/5 600 м
[Cb calv Ac trans Cc]
+16.3 +11.9 75 +16 +18 1013.1 1008.2
12 17.09 З 2 10 км {ливн. осадки} 9/3 600 м
[Cb calv Ac trans Ci sp]
+17.8 +10.2 61 +18 +22 1012.5 1007.6
15 17.09 СЗ 2 10 км 9/3 1000 м
[Sc Ac trans Ci sp]
+19.3 +9.8 54 +21 +21 комфорт 1010.8 1005.9
18 17.09 штиль 0 10 км 8/3 1000 м
[Sc Ac trans Ci sp]
+17.0 +9.8 63 +17 +17 1010.8 1005.9 +19.6 0.4
21 17.09 СВ 1 10 км 5/0
[Ac trans]
+14.2 +10.4 78 +15 +15 1010.4 1005.4
00 18.09 штиль 0 4000 м дымка 8/0
[Ac trans Ci sp]
+11.7 +9.9 89 +11 +11 1008.2 1003.2
03 18.09 С 1 4000 м дымка 8/0
[Ac trans]
+12.4 +10.0 85 +12 +12 1008.2 1003.2
06 18.09 С 5 10 км 9/4 600 м
[Sc Ac trans Ci sp]
+14.5 +9.4 71 +13 +13 1010.0 1005.0 +10.7
09 18.09 СЗ 5
{12}
10 км 9/5 600 м
[Cb calv Ac trans Ci sp]
+13.5 +6.7 63 +12 +13 1012.8 1007.8
12 18.09 СЗ 6
{12}
10 км 3/3 600 м
[Sc]
+17.3 +1.1 34 +17 +19 1013.4 1008.5
15 18.09 СЗ 5
{14}
10 км ясно +17.3 -0.5 30 +17 +17 1014.9 1010.0

 

Местоположение метеостанции Дубоссары (Молдова): широта 47.28 долгота 29.00 высота над уровнем моря 40 м.

В архиве по умолчанию представлена погода в Дубоссарах за последнюю неделю. Архивные данные за месяц целиком и за предыдущие месяцы, начиная с января 2011 года, Вы можете получить, выбрав интересующий диапазон дат из раскрывающегося списка и нажав кнопку "Ввод!".


*Определитесь, кто Вы:
робот инопланетянин человек

Внимание! Время в таблицах - всемирное. Для получения местного времени необходимо прибавить поправку, которая равна 2 ч.

Смотрите также архив погоды в соседних городах и на ближайших метеорологических станциях:

Погода в Балцате (Молдова) (26 км)
Погода в Кишиневе (Молдова) (29 км)
Погода в Бравичах (Молдова) (44 км)
Погода в Кодрах (Молдова) (51 км)
Погода в Рыбнице (Молдова) (55 км)
Погода в Тирасполе (Молдова) (62 км)
Погода в Затишье (Одесская область, Украина) (67 км)
Погода в Корнестах (Молдова) (70 км)
Погода в Каменке (Молдова) (86 км)
Погода в Штефан Водэ (Молдова) (92 км)

Пояснения к столбцам:

Ветер - указаны скорость ветра в м/с - средняя за 10 мин, порывы в срок и между сроками (в фигурных скобках) и направление, откуда дует ветер: С - северный, СВ - северо-восточный, В - восточный, ЮВ - юго-восточный, Ю - южный, ЮЗ - юго-западный, З - западный, СЗ - северо-западный.
Видимость - горизонтальная дальность видимости в метрах или километрах. При видимости от 1 до 10 км при отсутствии осадков обычно наблюдается дымка, при ухудшении видимости до 1 км и менее - туман. В сухую погоду видимость может ухудшаться дымом, пылью или мглою.
Явления - указаны атмосферные явления, наблюдавшиеся в срок или в последний час перед сроком; фигурными скобками обозначены явления, наблюдавшиеся между сроками (за 1-3 часа до срока); квадратными скобками обозначены град или гололедные отложения с указанием их диаметра в мм.
Облачность - указаны через наклонную черту общая и нижняя облачность в баллах и высота нижней границы облаков в метрах; квадратными скобками обозначены формы облаков: Ci - перистые, Cs - перисто-слоистые, Cc - перисто-кучевые, Ac - высококучевые, As - высокослоистые, Sc - слоисто-кучевые, Ns - слоисто-дождевые, Cu - кучевые, Cb - кучево-дождевые. Подробнее классификацию облаков см. в Атласе облаков (PDF).
T - Температура воздуха - температура, измеренная на высоте 2 м над землей.
Td - Температура точки росы - температура, при понижении до которой содержащийся в воздухе водяной пар достигнет насыщения.
f - Относительная влажность воздуха - влажноcть воздуха, измеренная на высоте 2 м над землей.
Te - Эффективная температура - температура, которую ощущает одетый по сезону человек в тени. Характеристика душности погоды. При расчете учитывается влияние влажности воздуха и скорости ветра на теплоощущения человека.
Tes - Эффективная температура на солнце - температура, которую ощущает человек, с поправкой на солнечный нагрев. Характеристика знойности погоды. Зависит от высоты солнца над горизонтом, облачности и скорости ветра. Ночью, в пасмурную погоду, а также при ветре 12 м/с и более поправка равна нулю.
P - Атмосферное давление - приведенное к уровню моря атмосферное давление.
Po - Атмосферное давление - измеренное на уровне метеостанции атмосферное давление.
Tmin - Минимальная температура - минимум температуры воздуха на высоте 2 м над землей.
Tmax - Максимальная температура - максимум температуры воздуха на высоте 2 м над землей.
R - Количество осадков - Количество выпавших осадков за период времени, мм. При наведении курсора мыши на число - период времени, за который выпало указанное количество осадков.
R24 - Количество осадков - Количество выпавших осадков за 24 часа, мм.
S - Снежный покров - Высота снежного покрова, см. При наведении курсора мыши на число - состояние снежного покрова и степень покрытия местности в баллах.